Location: Moorefield
(40.6897°N, 100.3996°W)
Time: 10:05:09
(UTC+00:00)

Envisat - Visible Passes

Search period start: 22 August 2019 00:00
Search period end: 01 September 2019 00:00
Orbit: 764 x 766 km, 98.1° (Epoch: 21 August)

Date Brightness Start Highest point End Pass type
(mag) Time Alt. Az. Time Alt. Az. Time Alt. Az.
22 Aug 5.9 02:19:54 10° SW 02:22:42 15° W 02:25:31 10° WNW visible
25 Aug 5.8 02:07:48 10° SW 02:11:20 19° W 02:14:54 10° NW visible
27 Aug 6.5 02:36:46 10° W 02:37:09 10° W 02:37:33 10° W visible
28 Aug 5.5 01:55:56 10° SSW 01:59:59 24° W 02:04:05 10° NW visible
30 Aug 6.0 02:23:20 10° WSW 02:25:46 13° W 02:28:12 10° WNW visible
31 Aug 5.1 01:44:14 10° SSW 01:48:40 30° W 01:53:07 10° NW visible
